Location: Trani
(41.2830°N, 16.4170°E)
Time: 03:11:41
(UTC+02:00)

ISS - Pass Details

Date: 15 May 2021
Orbit: 417 x 422 km, 51.6° (Epoch: 14 June)

Event Time Altitude Azimuth Distance (km) Brightness Sun altitude
Rises 23:38:41 0° 281° (W) 2,363 0.4 -27.4°
Reaches altitude 10° 23:41:17 10° 302° (WNW) 1,502 -0.4 -27.5°
Maximum altitude 23:43:38 17° 347° (NNW) 1,131 -0.8 -27.7°
Drops below altitude 10° 23:46:00 10° 31° (NNE) 1,506 -0.5 -27.8°
Sets 23:48:37 0° 52° (NE) 2,373 0.3 -27.9°
